| time (UTC) | temp C | wind direction | speed KPH | gust KPH | rain 1hr cm | rain 24hr cm | rain mn cm | humidity % | barometer mb |
| 20260506094857 | 22 | 220 | 9.7 | 0.0 | 0.00 | 0.00 | 0.00 | 41 | 1014.0 |
| 20260506093356 | 22 | 220 | 9.7 | 0.0 | 0.00 | 0.00 | 0.00 | 41 | 1014.0 |
| 20260506091856 | 22 | 220 | 9.7 | 0.0 | 0.00 | 0.00 | 0.00 | 41 | 1014.0 |
| 20260506090356 | 22 | 220 | 9.7 | 0.0 | 0.00 | 0.00 | 0.00 | 41 | 1014.0 |
| 20260506084857 | 20 | 4.8 | 0.0 | 0.00 | 0.00 | 0.00 | 46 | 1014.0 | |
| 20260506083356 | 20 | 4.8 | 0.0 | 0.00 | 0.00 | 0.00 | 46 | 1014.0 | |
| 20260506081853 | 20 | 4.8 | 0.0 | 0.00 | 0.00 | 0.00 | 46 | 1014.0 | |
| 20260506080357 | 20 | 4.8 | 0.0 | 0.00 | 0.00 | 0.00 | 46 | 1014.0 | |
| 20260506073357 | 17 | 140 | 8.0 | 0.0 | 0.00 | 0.00 | 0.00 | 52 | 1014.0 |
| 20260506071856 | 17 | 140 | 8.0 | 0.0 | 0.00 | 0.00 | 0.00 | 52 | 1014.0 |
| 20260506070356 | 17 | 140 | 8.0 | 0.0 | 0.00 | 0.00 | 0.00 | 52 | 1014.0 |
| 20260506061857 | 13 | 120 | 8.0 | 0.0 | 0.00 | 0.00 | 0.00 | 59 | 1014.0 |
| 20260506060358 | 13 | 120 | 8.0 | 0.0 | 0.00 | 0.00 | 0.00 | 59 | 1014.0 |
| 20260506050410 | 10 | 140 | 9.7 | 0.0 | 0.00 | 0.00 | 0.00 | 71 | 1014.0 |
| 20260506044912 | 6 | 1.6 | 0.0 | 0.00 | 0.00 | 0.00 | 81 | 1014.0 | |
| 20260506043400 | 6 | 1.6 | 0.0 | 0.00 | 0.00 | 0.00 | 81 | 1014.0 | |
| 20260506041857 | 6 | 1.6 | 0.0 | 0.00 | 0.00 | 0.00 | 81 | 1014.0 | |
| 20260506040356 | 6 | 1.6 | 0.0 | 0.00 | 0.00 | 0.00 | 81 | 1014.0 | |
| 20260506034857 | 7 | 3.2 | 0.0 | 0.00 | 0.00 | 0.00 | 76 | 1013.0 | |
| 20260506033356 | 7 | 3.2 | 0.0 | 0.00 | 0.00 | 0.00 | 76 | 1013.0 | |
| 20260506031856 | 7 | 3.2 | 0.0 | 0.00 | 0.00 | 0.00 | 76 | 1013.0 | |
| 20260506030356 | 7 | 3.2 | 0.0 | 0.00 | 0.00 | 0.00 | 76 | 1013.0 | |
| 20260506024856 | 7 | 4.8 | 0.0 | 0.00 | 0.00 | 0.00 | 71 | 1013.0 | |
| 20260506023356 | 7 | 4.8 | 0.0 | 0.00 | 0.00 | 0.00 | 71 | 1013.0 | |
| 20260506021854 | -17 | 0.0 | 0.0 | 0.00 | 0.00 | 0.00 | |||
| 20260506020356 | -17 | 0.0 | 0.0 | 0.00 | 0.00 | 0.00 | |||
| 20260506014856 | 8 | 4.8 | 0.0 | 0.00 | 0.00 | 0.00 | 66 | 1013.0 | |
| 20260506013356 | 8 | 4.8 | 0.0 | 0.00 | 0.00 | 0.00 | 66 | 1013.0 | |
| 20260506011857 | 8 | 4.8 | 0.0 | 0.00 | 0.00 | 0.00 | 66 | 1013.0 | |
| 20260506010356 | 8 | 4.8 | 0.0 | 0.00 | 0.00 | 0.00 | 66 | 1013.0 | |
| 20260506004854 | 8 | 4.8 | 0.0 | 0.00 | 0.00 | 0.00 | 66 | 1013.0 | |
| 20260506003520 | 8 | 140 | 8.0 | 0.0 | 0.00 | 0.00 | 0.00 | 66 | 1013.0 |
| 20260506001857 | 8 | 140 | 8.0 | 0.0 | 0.00 | 0.00 | 0.00 | 66 | 1013.0 |
| 20260506000357 | 8 | 140 | 8.0 | 0.0 | 0.00 | 0.00 | 0.00 | 66 | 1013.0 |
| 20260505234857 | -17 | 0.0 | 0.0 | 0.00 | 0.00 | 0.00 | |||
| 20260505233356 | -17 | 0.0 | 0.0 | 0.00 | 0.00 | 0.00 | |||
| 20260505231856 | -17 | 0.0 | 0.0 | 0.00 | 0.00 | 0.00 | |||
| 20260505230357 | -17 | 0.0 | 0.0 | 0.00 | 0.00 | 0.00 | |||
| 20260505224857 | 12 | 310 | 4.8 | 0.0 | 0.00 | 0.00 | 0.00 | 51 | 1013.0 |
| 20260505223356 | 12 | 310 | 4.8 | 0.0 | 0.00 | 0.00 | 0.00 | 51 | 1013.0 |
| 20260505221854 | 12 | 310 | 4.8 | 0.0 | 0.00 | 0.00 | 0.00 | 51 | 1013.0 |
| 20260505220357 | 12 | 310 | 4.8 | 0.0 | 0.00 | 0.00 | 0.00 | 51 | 1013.0 |
| 20260505214857 | 12 | 310 | 4.8 | 0.0 | 0.00 | 0.00 | 0.00 | 51 | 1013.0 |
| 20260505213357 | 12 | 320 | 3.2 | 0.0 | 0.00 | 0.00 | 0.00 | 51 | 1013.0 |
| 20260505211856 | 12 | 320 | 3.2 | 0.0 | 0.00 | 0.00 | 0.00 | 51 | 1013.0 |
| 20260505210357 | 12 | 320 | 3.2 | 0.0 | 0.00 | 0.00 | 0.00 | 51 | 1013.0 |
| 20260505204858 | 12 | 320 | 3.2 | 0.0 | 0.00 | 0.00 | 0.00 | 51 | 1013.0 |
| 20260505203356 | 13 | 320 | 4.8 | 0.0 | 0.00 | 0.00 | 0.00 | 44 | 1012.0 |
| 20260505201927 | 13 | 320 | 4.8 | 0.0 | 0.00 | 0.00 | 0.00 | 44 | 1012.0 |
| 20260505200357 | 13 | 320 | 4.8 | 0.0 | 0.00 | 0.00 | 0.00 | 44 | 1012.0 |
| 20260505194856 | 17 | 4.8 | 0.0 | 0.00 | 0.00 | 0.00 | 37 | 1012.0 | |
| 20260505193356 | 17 | 4.8 | 0.0 | 0.00 | 0.00 | 0.00 | 37 | 1012.0 | |
| 20260505191856 | 17 | 4.8 | 0.0 | 0.00 | 0.00 | 0.00 | 37 | 1012.0 | |
| 20260505190356 | 17 | 4.8 | 0.0 | 0.00 | 0.00 | 0.00 | 37 | 1012.0 | |
| 20260505184857 | 20 | 160 | 4.8 | 0.0 | 0.00 | 0.00 | 0.00 | 33 | 1012.0 |
| 20260505183357 | 20 | 160 | 4.8 | 0.0 | 0.00 | 0.00 | 0.00 | 33 | 1012.0 |
| 20260505181854 | 20 | 160 | 4.8 | 0.0 | 0.00 | 0.00 | 0.00 | 33 | 1012.0 |
| 20260505180357 | 20 | 160 | 4.8 | 0.0 | 0.00 | 0.00 | 0.00 | 33 | 1012.0 |
| 20260505174851 | 22 | 170 | 9.7 | 0.0 | 0.00 | 0.00 | 0.00 | 27 | 1012.0 |
| 20260505173356 | 22 | 170 | 9.7 | 0.0 | 0.00 | 0.00 | 0.00 | 27 | 1012.0 |
| 20260505171856 | 22 | 170 | 9.7 | 0.0 | 0.00 | 0.00 | 0.00 | 27 | 1012.0 |
| 20260505170357 | 22 | 170 | 9.7 | 0.0 | 0.00 | 0.00 | 0.00 | 27 | 1012.0 |
| 20260505164856 | 25 | 150 | 12.9 | 0.0 | 0.00 | 0.00 | 0.00 | 18 | 1012.0 |
| 20260505163357 | 25 | 150 | 12.9 | 0.0 | 0.00 | 0.00 | 0.00 | 18 | 1012.0 |
| 20260505161857 | 25 | 150 | 12.9 | 0.0 | 0.00 | 0.00 | 0.00 | 18 | 1012.0 |
| 20260505160357 | 25 | 150 | 12.9 | 0.0 | 0.00 | 0.00 | 0.00 | 18 | 1012.0 |
| 20260505153357 | 26 | 130 | 16.1 | 0.0 | 0.00 | 0.00 | 0.00 | 20 | 1012.0 |
| 20260505151905 | 26 | 130 | 16.1 | 0.0 | 0.00 | 0.00 | 0.00 | 20 | 1012.0 |
| 20260505150357 | 26 | 130 | 16.1 | 0.0 | 0.00 | 0.00 | 0.00 | 20 | 1012.0 |
| 20260505140356 | 26 | 110 | 11.3 | 0.0 | 0.00 | 0.00 | 0.00 | 23 | 1013.0 |
| 20260505124857 | 25 | 4.8 | 0.0 | 0.00 | 0.00 | 0.00 | 24 | 1015.0 | |
| 20260505123356 | 25 | 4.8 | 0.0 | 0.00 | 0.00 | 0.00 | 24 | 1015.0 | |
| 20260505121856 | 25 | 4.8 | 0.0 | 0.00 | 0.00 | 0.00 | 24 | 1015.0 | |
| 20260505120408 | -17 | 0.0 | 0.0 | 0.00 | 0.00 | 0.00 | |||
| 20260505114904 | 23 | 4.8 | 0.0 | 0.00 | 0.00 | 0.00 | 27 | 1015.0 | |
| 20260505113427 | 23 | 4.8 | 0.0 | 0.00 | 0.00 | 0.00 | 27 | 1015.0 | |
| 20260505111857 | 23 | 4.8 | 0.0 | 0.00 | 0.00 | 0.00 | 27 | 1015.0 | |
| 20260505110357 | 23 | 4.8 | 0.0 | 0.00 | 0.00 | 0.00 | 27 | 1015.0 | |
| 20260505101857 | 22 | 4.8 | 0.0 | 0.00 | 0.00 | 0.00 | 29 | 1016.0 | |
| 20260505100357 | 22 | 4.8 | 0.0 | 0.00 | 0.00 | 0.00 | 29 | 1016.0 |